METEOR 2-5 DEB, 45507

Orbit data source: Space-Track

METEOR 2-5 DEB, 45507 is space debris in LEO originally from a launch on Wed, 31 Oct 1979 UTC launched from the Plesetsk Missile And Space Complex (PKMTR). Debris objects in space refer to the collection of defunct objects orbiting the Earth. Examples of debris include non-operational satellites, rocket bodies, and fragments generated from explosions, collisions, or faulty payload assembly.

Loading next visibility...
Identifier
45507, 1979-095CP
Orbit
LEO
Country
Flag of CISCIS
Related business
Manufacturer
Unknown
Mission
Spacecraft
Bus & Motor
Unknown
Mass
Unknown
Launch date (UTC)
1979-10-31 (46 years ago)
Launch vehicle
Unknown
Launch site
Plesetsk Missile And Space Complex (PKMTR)
Object type
Payload
Rocket body
Debris
Shape & HBR
Unknown shape, 0.1 m
Radar Cross Section
Small (<0.1 m²)

Expand to show TLE details & history
Last TLE update: 4 days ago

TLE from 4 days ago
0 METEOR 2-5 DEB
1 45507U 79095CP  25290.53424968  .00010104  00000-0  35326-2 0  9997
2 45507  81.2032  26.4322 0004283  16.3093 343.8229 14.35119398562319
Epoch: 2025-10-17T12:49Z
TLE epoch observation values (Epoch: 2025-10-17T12:49:19.172Z)
Latitude
0.00003°
Longitude
167.82408°
Altitude
774.659 km
Speed
7.468 km/s
True Right ascension
01h 45m 43s
True Declination
0° 00' 00"
Sunlit
Object was in full shadow at epoch
Visualization orbit readout
Latitude
Unknown
Longitude
Unknown
Altitude
Unknown
Speed
Unknown
Apparent Right ascension
Unknown
Apparent Declination
Unknown
Sunlit
N/A
Visualization observer readout
Local Sidereal Time
11:13:46
Azimuth
Unknown
Elevation
Unknown
Doppler factor
Unknown
Orbital elements
Apogee altitude
774.875 km
Perigee altitude
768.75 km
Semi-major axis
7,149.949 km
Eccentricity
0.00043
Inclination
81.2032°
RAAN
26.4322°
Arg. of periapsis
16.3093°
True anomaly
343.80922°
Mean anomaly
343.8229°
Eccentric anomaly
343.81606°
Mean motion
3.58995 °/min
Orbital period
100.28 mins
BSTAR
0.0035326
Loading maneuver chart data...
Computing Atmospheric mass density...

Documentation

Showing up to 5 results
|